VR2R-13 Weather Reports


time (UTC)temp
F
wind
direction
speed
knots
gust
knots
rain 1hr
in
rain 24hr
in
rain mn
in
humidity
%
barometer
mb
20260506035249 64 114 0.0 2.6 0.00 0.00 0.00 98 915.0
20260506034751 64 98 0.0 0.9 0.00 0.00 0.00 98 914.9
20260506034749 64 104 0.0 0.9 0.00 0.00 0.00 98 914.9
20260506034249 64 104 0.0 0.0 0.00 0.00 0.00 98 915.0
20260506033750 64 103 1.7 3.5 0.00 0.00 0.00 98 914.9
20260506033249 64 103 3.5 5.2 0.00 0.00 0.00 98 915.0
20260506032952 63 57 0.0 0.0 0.00 0.00 0.00 98 915.0
20260506032749 63 76 0.0 3.5 0.00 0.00 0.00 98 915.0
20260506032350 64 85 3.5 5.2 0.00 0.00 0.00 98 914.9
20260506032249 64 95 3.5 5.2 0.00 0.00 0.00 98 914.9
20260506031751 64 111 1.7 5.2 0.00 0.00 0.00 98 914.9
20260506031749 64 113 1.7 5.2 0.00 0.00 0.00 98 914.9
20260506030550 63 86 0.0 2.6 0.00 0.00 0.00 98 914.9
20260506030249 64 82 2.6 4.3 0.00 0.00 0.00 98 914.9
20260506025950 63 66 0.0 2.6 0.00 0.00 0.00 98 914.9
20260506025749 64 87 3.5 7.0 0.00 0.00 0.00 98 914.9
20260506025351 64 71 3.5 7.0 0.00 0.00 0.00 98 914.9
20260506025249 64 81 4.3 7.0 0.00 0.00 0.00 98 914.9
20260506024750 64 71 2.6 7.0 0.00 0.00 0.00 98 914.9
20260506024249 63 87 6.1 8.7 0.00 0.00 0.00 98 914.9
20260506024150 63 90 2.6 8.7 0.00 0.00 0.00 98 914.9
20260506023749 64 95 0.9 5.2 0.00 0.00 0.00 98 914.9
20260506023550 63 84 0.0 6.1 0.00 0.00 0.00 98 914.9
20260506023249 64 62 5.2 8.7 0.00 0.00 0.00 98 914.8
20260506022950 64 86 5.2 7.0 0.00 0.00 0.00 98 914.8
20260506022749 63 77 0.0 6.1 0.00 0.00 0.00 98 914.8
20260506022350 63 88 4.3 7.8 0.00 0.00 0.00 98 914.8
20260506022248 63 75 0.9 7.0 0.00 0.00 0.00 98 914.8
20260506021750 63 82 5.2 7.0 0.00 0.00 0.00 98 914.9
20260506021748 63 78 5.2 7.0 0.00 0.00 0.00 98 914.9
20260506021248 63 75 1.7 7.0 0.00 0.00 0.00 98 914.8
20260506021151 63 76 5.2 7.0 0.00 0.00 0.00 98 914.8
20260506020249 62 86 0.0 0.0 0.00 0.00 0.00 98 914.8
20260506015350 63 77 5.2 7.0 0.00 0.00 0.00 98 914.9
20260506015248 63 60 4.3 7.0 0.00 0.00 0.00 98 914.9
20260506014750 63 60 5.2 7.0 0.00 0.00 0.00 98 914.9
20260506014748 63 65 5.2 7.0 0.00 0.00 0.00 98 914.8
20260506014248 63 80 6.1 7.8 0.00 0.00 0.00 98 914.9
20260506014150 63 72 3.5 7.0 0.00 0.00 0.00 98 914.8
20260506013748 63 78 7.0 7.8 0.00 0.00 0.00 98 914.8
20260506013550 63 90 5.2 7.8 0.00 0.00 0.00 98 914.8
20260506013248 63 48 3.5 7.0 0.00 0.00 0.00 97 914.9
20260506012748 63 53 1.7 7.8 0.00 0.00 0.00 98 914.9
20260506012349 63 81 0.9 6.1 0.00 0.00 0.00 98 914.9
20260506012250 63 72 5.2 7.0 0.00 0.00 0.00 98 914.9
20260506011750 63 82 0.9 6.1 0.00 0.00 0.00 98 915.0
20260506011748 63 78 0.9 6.1 0.00 0.00 0.00 98 915.0
20260506011249 62 79 0.0 0.0 0.00 0.00 0.00 98 915.0
20260506011149 63 94 1.7 5.2 0.00 0.00 0.00 98 915.0
20260506010748 63 67 3.5 4.3 0.00 0.00 0.00 98 915.0
20260506010549 63 83 0.9 4.3 0.00 0.00 0.00 98 915.0
20260506010248 62 72 2.6 5.2 0.00 0.00 0.00 98 915.0
20260506005949 62 38 2.6 5.2 0.00 0.00 0.00 98 915.0
20260506005748 62 78 1.7 5.2 0.00 0.00 0.00 98 915.0
20260506005349 62 52 4.3 7.8 0.00 0.00 0.00 98 915.0
20260506005248 62 51 4.3 7.8 0.00 0.00 0.00 98 915.0
20260506004750 62 70 6.1 7.8 0.00 0.00 0.00 97 914.9
20260506004748 62 52 6.1 7.8 0.00 0.00 0.00 97 914.9
20260506004248 62 85 0.0 6.1 0.00 0.00 0.00 98 914.9
20260506004149 62 83 4.3 5.2 0.00 0.00 0.00 98 915.0
20260506003748 62 84 1.7 4.3 0.00 0.00 0.00 98 914.9
20260506003248 62 76 4.3 6.1 0.00 0.00 0.00 97 914.9
20260506002949 62 78 1.7 5.2 0.00 0.00 0.00 98 914.9
20260506002748 62 77 4.3 7.0 0.00 0.00 0.00 98 914.8
20260506002349 62 55 5.2 7.0 0.00 0.00 0.00 97 914.8
20260506002248 62 57 3.5 7.0 0.00 0.00 0.00 97 914.8
20260506001747 62 78 3.5 7.0 0.00 0.00 0.00 98 914.6
20260506001248 62 66 2.6 7.0 0.00 0.00 0.00 98 914.7
20260506001149 61 66 0.0 4.3 0.00 0.00 0.00 98 914.7
20260506000747 61 51 0.0 4.3 0.00 0.00 0.00 98 914.6
20260506000549 62 54 1.7 5.2 0.00 0.00 0.00 98 914.6
20260506000247 62 20 3.5 6.1 0.00 0.00 0.00 98 914.6
20260505235949 62 61 4.3 5.2 0.00 0.00 0.00 98 914.5
20260505235747 62 54 1.7 5.2 0.00 0.00 0.00 98 914.6
20260505235349 61 51 0.0 5.2 0.00 0.00 0.00 98 914.6
20260505234749 61 68 2.6 7.8 0.00 0.00 0.00 98 914.6
20260505234747 61 73 2.6 7.8 0.00 0.00 0.00 98 914.5
20260505234148 61 83 7.0 8.7 0.00 0.00 0.00 97 914.6
20260505233549 61 63 4.3 7.8 0.00 0.00 0.00 97 914.4
20260505232949 61 64 0.9 7.8 0.00 0.00 0.00 98 914.4
20260505232747 61 78 7.0 9.6 0.00 0.00 0.00 97 914.4
20260505232348 61 72 7.0 8.7 0.00 0.00 0.00 97 914.4
20260505232247 61 75 7.0 8.7 0.00 0.00 0.00 97 914.4
20260505231749 61 71 7.0 9.6 0.00 0.00 0.00 97 914.3
20260505231747 61 70 7.0 9.6 0.00 0.00 0.00 97 914.4
20260505231449 61 76 6.1 9.6 0.00 0.00 0.00 97 914.3
20260505231247 61 82 6.1 9.6 0.00 0.00 0.00 97 914.4
20260505231148 61 76 6.1 9.6 0.00 0.00 0.00 97 914.3
20260505230747 61 57 6.1 8.7 0.00 0.00 0.00 97 914.3
20260505230548 61 54 5.2 7.8 0.00 0.00 0.00 97 914.3
20260505230247 61 73 4.3 7.8 0.00 0.00 0.00 97 914.3
20260505225948 61 94 6.1 7.0 0.00 0.00 0.00 97 914.2
20260505225747 61 72 4.3 6.1 0.00 0.00 0.00 97 914.3
20260505225348 61 66 3.5 7.0 0.00 0.00 0.00 97 914.3
20260505225247 61 64 4.3 7.0 0.00 0.00 0.00 97 914.3
20260505224749 61 63 5.2 7.0 0.00 0.00 0.00 97 914.2
20260505224747 61 60 5.2 7.0 0.00 0.00 0.00 97 914.2
20260505224247 61 38 3.5 6.1 0.00 0.00 0.00 97 914.1
20260505224148 61 61 3.5 6.1 0.00 0.00 0.00 97 914.1
20260505223747 61 74 5.2 7.0 0.00 0.00 0.00 97 914.1
20260505223548 61 46 0.0 3.5 0.00 0.00 0.00 97 914.1
20260505223247 61 83 5.2 7.8 0.00 0.00 0.00 97 914.0
20260505222948 61 96 4.3 7.8 0.00 0.00 0.00 97 914.0
20260505222747 61 71 5.2 7.8 0.00 0.00 0.00 97 914.0
20260505222348 61 81 0.9 5.2 0.00 0.00 0.00 97 914.0
20260505222246 61 77 2.6 6.1 0.00 0.00 0.00 97 914.1
20260505221748 61 79 2.6 5.2 0.00 0.00 0.00 97 914.1
20260505221247 61 80 0.9 3.5 0.00 0.00 0.00 97 914.0
20260505221148 61 34 2.6 5.2 0.00 0.00 0.00 97 913.9
20260505220548 61 77 2.6 4.3 0.00 0.00 0.00 97 913.9
20260505220246 61 66 3.5 4.3 0.00 0.00 0.00 97 913.8
20260505215948 61 62 2.6 3.5 0.00 0.00 0.00 97 913.8
20260505215746 61 77 0.0 3.5 0.00 0.00 0.00 97 913.7
20260505215348 62 116 2.6 3.5 0.00 0.00 0.00 97 913.7
20260505215246 62 80 1.7 3.5 0.00 0.00 0.00 97 913.7
20260505214748 62 67 0.9 4.3 0.00 0.00 0.00 97 913.7
20260505214746 62 64 0.9 4.3 0.00 0.00 0.00 97 913.7
20260505214246 62 45 1.7 4.3 0.00 0.00 0.00 97 913.7
20260505213746 62 142 0.9 2.6 0.00 0.00 0.00 98 913.7
20260505213548 62 90 0.9 3.5 0.00 0.00 0.00 98 913.7
20260505213246 62 59 0.9 3.5 0.00 0.00 0.00 98 913.7
20260505212948 62 77 0.9 3.5 0.00 0.00 0.00 97 913.7
20260505212746 62 75 1.7 3.5 0.00 0.00 0.00 97 913.7
20260505212347 62 81 1.7 3.5 0.00 0.00 0.00 97 913.7
20260505211748 62 77 0.9 2.6 0.00 0.00 0.00 97 913.7
20260505211246 62 95 0.0 4.3 0.00 0.00 0.00 97 913.6
20260505211147 63 49 0.9 4.3 0.00 0.00 0.00 97 913.6
20260505210746 63 145 0.9 4.3 0.00 0.00 0.00 98 913.6
20260505210547 63 120 1.7 4.3 0.00 0.00 0.00 98 913.6
20260505210246 63 166 1.7 2.6 0.00 0.00 0.00 98 913.6
20260505205947 63 151 0.0 2.6 0.00 0.00 0.00 98 913.5
20260505205746 63 123 0.0 2.6 0.00 0.00 0.00 98 913.5
20260505205347 63 154 0.9 1.7 0.00 0.00 0.00 98 913.5
20260505205248 63 177 0.0 1.7 0.00 0.00 0.00 98 913.5
20260505204748 63 92 0.9 2.6 0.00 0.00 0.00 98 913.4
20260505204746 63 97 0.9 2.6 0.00 0.00 0.00 98 913.4
20260505204246 62 21 0.9 3.5 0.00 0.00 0.00 97 913.4
20260505204147 62 71 0.9 3.5 0.00 0.00 0.00 97 913.4
20260505203746 62 48 1.7 5.2 0.00 0.00 0.00 97 913.4
20260505203547 62 84 1.7 5.2 0.00 0.00 0.00 97 913.3
20260505203246 63 80 3.5 5.2 0.00 0.00 0.00 98 913.4
20260505202947 62 126 0.9 4.3 0.00 0.00 0.00 98 913.4
20260505202746 62 87 0.9 5.2 0.00 0.00 0.00 97 913.4
20260505202347 62 64 0.9 5.2 0.00 0.00 0.00 97 913.3
20260505202246 62 63 1.7 5.2 0.00 0.00 0.00 97 913.4
20260505201748 62 120 0.9 2.6 0.00 0.00 0.00 98 913.4
20260505201746 62 118 0.9 2.6 0.00 0.00 0.00 98 913.4
20260505201246 62 51 0.0 4.3 0.00 0.00 0.00 97 913.4
20260505201147 62 52 0.9 5.2 0.00 0.00 0.00 98 913.4
20260505200746 62 78 1.7 5.2 0.00 0.00 0.00 97 913.4
20260505200547 62 105 2.6 5.2 0.00 0.00 0.00 97 913.4
20260505200246 62 125 2.6 5.2 0.00 0.00 0.00 98 913.4
20260505195947 62 75 2.6 4.3 0.00 0.00 0.00 98 913.3
20260505195747 62 64 0.9 4.3 0.00 0.00 0.00 98 913.3
20260505195347 62 85 2.6 5.2 0.00 0.00 0.00 97 913.3
20260505195246 62 82 2.6 5.2 0.00 0.00 0.00 98 913.3
20260505194745 62 96 0.9 5.2 0.00 0.00 0.00 98 913.3
20260505194245 62 84 3.5 6.1 0.00 0.00 0.00 97 913.3
20260505194147 62 90 3.5 6.1 0.00 0.00 0.00 97 913.3
20260505193745 62 83 4.3 6.1 0.00 0.00 0.00 97 913.3
20260505193547 62 82 2.6 6.1 0.00 0.00 0.00 97 913.3
20260505193245 62 100 4.3 6.1 0.00 0.00 0.00 97 913.3
20260505192947 62 95 4.3 6.1 0.00 0.00 0.00 98 913.3
20260505192746 62 77 3.5 5.2 0.00 0.00 0.00 97 913.2
20260505192347 62 74 4.3 5.2 0.00 0.00 0.00 97 913.2
20260505192245 62 80 4.3 5.2 0.00 0.00 0.00 97 913.2
20260505191747 62 61 3.5 5.2 0.00 0.00 0.00 98 913.2
20260505191745 62 70 3.5 5.2 0.00 0.00 0.00 98 913.2
20260505191245 62 81 3.5 5.2 0.00 0.00 0.00 98 913.2
20260505191147 62 67 3.5 5.2 0.00 0.00 0.00 98 913.3
20260505190747 61 73 3.5 6.1 0.00 0.00 0.00 97 913.2
20260505190246 61 32 3.5 6.1 0.00 0.00 0.00 97 913.2
20260505185947 61 77 5.2 6.1 0.00 0.00 0.00 98 913.2
20260505185745 61 71 2.6 6.1 0.00 0.00 0.00 97 913.2
20260505185346 61 73 3.5 7.0 0.00 0.00 0.00 97 913.1
20260505185245 61 50 3.5 7.0 0.00 0.00 0.00 97 913.1
20260505184747 61 75 5.2 8.7 0.00 0.00 0.00 97 913.1
20260505184745 61 77 5.2 8.7 0.00 0.00 0.00 97 913.1
20260505184245 61 70 5.2 8.7 0.00 0.00 0.00 97 913.2
20260505184146 61 86 6.1 8.7 0.00 0.00 0.00 97 913.2
20260505183745 61 92 5.2 7.0 0.00 0.00 0.00 97 913.2
20260505183546 61 88 5.2 7.0 0.00 0.00 0.00 97 913.2
20260505183245 61 70 5.2 7.0 0.00 0.00 0.00 97 913.3
20260505182946 61 68 4.3 7.0 0.00 0.00 0.00 97 913.3
20260505182745 61 72 3.5 7.0 0.00 0.00 0.00 97 913.3
20260505182346 61 69 4.3 7.0 0.00 0.00 0.00 97 913.3
20260505181747 62 74 2.6 7.0 0.00 0.00 0.00 97 913.3
20260505181745 62 79 2.6 7.0 0.00 0.00 0.00 97 913.3
20260505181245 61 70 3.5 5.2 0.00 0.00 0.00 98 913.3
20260505181146 61 68 3.5 6.1 0.00 0.00 0.00 98 913.4
20260505180745 61 83 3.5 7.0 0.00 0.00 0.00 97 913.4
20260505180546 61 73 3.5 7.0 0.00 0.00 0.00 97 913.4
20260505180244 61 63 4.3 7.0 0.00 0.00 0.00 97 913.4
20260505175946 61 61 3.5 7.0 0.00 0.00 0.00 97 913.3
20260505175744 61 70 2.6 7.0 0.00 0.00 0.00 97 913.4
20260505175244 62 87 5.2 7.0 0.00 0.00 0.00 97 913.3
20260505174244 61 51 3.5 7.0 0.00 0.00 0.00 97 913.4
20260505174146 61 51 4.3 7.0 0.00 0.00 0.00 97 913.4
20260505173744 61 78 4.3 7.0 0.00 0.00 0.00 98 913.5
20260505173244 61 91 6.1 7.8 0.00 0.00 0.00 97 913.4
20260505172946 61 56 6.1 7.8 0.00 0.00 0.00 97 913.5
20260505172744 61 58 5.2 7.8 0.00 0.00 0.00 97 913.5
20260505172346 61 78 6.1 9.6 0.00 0.00 0.00 97 913.5
20260505172244 61 48 7.0 9.6 0.00 0.00 0.00 97 913.5
20260505171746 61 71 7.0 9.6 0.00 0.00 0.00 97 913.5
20260505171744 61 70 7.0 9.6 0.00 0.00 0.00 97 913.5
20260505171244 61 74 2.6 10.4 0.00 0.00 0.00 97 913.5
20260505170244 61 83 7.8 12.2 0.00 0.00 0.00 97 913.5
20260505165946 61 52 7.0 8.7 0.00 0.00 0.00 97 913.6
20260505165744 61 74 0.9 8.7 0.00 0.00 0.00 97 913.7
20260505165345 61 50 7.0 10.4 0.00 0.00 0.00 97 913.6
20260505165244 61 61 7.8 11.3 0.00 0.00 0.00 97 913.6
20260505164746 61 62 8.7 11.3 0.00 0.00 0.00 97 913.6
20260505164244 61 67 7.8 11.3 0.00 0.00 0.00 97 913.7
20260505164145 61 78 7.8 11.3 0.00 0.00 0.00 97 913.7
20260505163744 61 75 8.7 11.3 0.00 0.00 0.00 97 913.7
20260505163244 61 76 9.6 12.2 0.00 0.00 0.00 97 913.7
20260505162945 61 64 8.7 11.3 0.00 0.00 0.00 97 913.7
20260505162744 61 75 8.7 11.3 0.00 0.00 0.00 97 913.7
20260505162345 61 94 4.3 10.4 0.00 0.00 0.00 97 913.8
20260505162245 61 89 0.0 9.6 0.00 0.00 0.00 97 913.7
20260505161744 61 79 7.8 8.7 0.00 0.00 0.00 97 913.9
20260505161145 61 48 7.0 13.0 0.00 0.00 0.00 97 913.9
20260505160744 61 84 8.7 13.0 0.00 0.00 0.00 97 914.0
20260505160545 61 81 5.2 7.8 0.00 0.00 0.00 97 914.0
20260505160244 61 69 6.1 7.8 0.00 0.00 0.00 98 914.0
20260505153243 61 71 5.2 7.0 0.00 0.00 0.00 97 914.3
20260505152945 61 80 6.1 7.8 0.00 0.00 0.00 97 914.2
20260505152744 61 84 7.0 7.8 0.00 0.00 0.00 97 914.3
20260505152345 61 79 6.1 7.8 0.00 0.00 0.00 97 914.3
20260505152243 61 73 6.1 7.8 0.00 0.00 0.00 97 914.4
20260505151745 61 60 0.0 6.1 0.00 0.00 0.00 97 914.5
20260505151743 61 56 0.0 6.1 0.00 0.00 0.00 97 914.5
20260505151244 60 60 0.9 6.1 0.00 0.00 0.00 97 914.5
20260505151145 61 57 5.2 7.0 0.00 0.00 0.00 97 914.5
20260505150743 61 63 5.2 7.0 0.00 0.00 0.00 97 914.5
20260505150545 60 67 0.0 6.1 0.00 0.00 0.00 97 914.5
20260505150244 60 67 1.7 7.8 0.00 0.00 0.00 97 914.5
20260505140544 61 59 2.6 7.0 0.00 0.00 0.00 97 914.6
20260505130242 61 48 3.5 5.2 0.00 0.00 0.00 97 914.4
20260505124744 61 35 0.0 3.5 0.00 0.00 0.00 98 914.4
20260505124144 61 18 3.5 5.2 0.00 0.00 0.00 97 914.3
20260505123742 61 35 4.3 5.2 0.00 0.00 0.00 97 914.2
20260505123543 61 22 0.0 4.3 0.00 0.00 0.00 97 914.2
20260505123242 61 43 4.3 7.0 0.00 0.00 0.00 97 914.2
20260505122943 61 41 2.6 6.1 0.00 0.00 0.00 97 914.2
20260505122743 61 46 4.3 6.1 0.00 0.00 0.00 97 914.1
20260505122343 61 55 4.3 5.2 0.00 0.00 0.00 97 914.1
20260505122242 61 40 4.3 5.2 0.00 0.00 0.00 97 914.1
20260505121744 61 51 1.7 4.3 0.00 0.00 0.00 97 914.1
20260505121742 61 53 1.7 4.3 0.00 0.00 0.00 97 914.1
20260505121242 61 43 4.3 6.1 0.00 0.00 0.00 97 914.1
20260505121143 61 34 4.3 6.1 0.00 0.00 0.00 97 914.0
20260505120742 61 61 4.3 4.3 0.00 0.00 0.00 97 914.1
20260505120543 61 62 3.5 4.3 0.00 0.00 0.00 97 914.1
20260505115742 62 31 0.0 0.9 0.00 0.00 0.00 97 914.1
20260505115343 63 59 2.6 2.6 0.01 0.01 0.00 97 914.0
20260505115242 63 49 2.6 2.6 0.01 0.01 0.00 97 914.0
20260505114742 62 28 0.0 0.9 0.00 0.00 0.00 98 914.0
20260505114242 62 2 0.0 0.0 0.00 0.00 0.00 98 914.0
20260505114145 62 10 0.0 0.0 0.00 0.00 0.00 97 914.0
20260505113742 63 19 1.7 2.6 0.00 0.00 0.00 97 914.0
20260505113543 62 49 0.0 1.7 0.00 0.00 0.00 98 913.9
20260505113242 63 56 0.0 2.6 0.00 0.00 0.00 98 913.9
20260505112943 63 48 0.9 1.7 0.00 0.00 0.00 97 913.9
20260505112741 62 3 0.9 1.7 0.00 0.00 0.00 97 913.9
20260505112242 62 41 2.6 3.5 0.00 0.00 0.00 97 913.8
20260505111743 62 41 0.9 3.5 0.00 0.00 0.00 98 913.7
20260505111741 62 37 0.9 3.5 0.00 0.00 0.00 98 913.8
20260505111242 62 35 2.6 2.6 0.00 0.00 0.00 98 913.7
20260505111143 62 38 2.6 2.6 0.00 0.00 0.00 98 913.7
20260505110741 62 46 0.9 3.5 0.00 0.00 0.00 98 913.7
20260505110543 62 63 0.0 3.5 0.00 0.00 0.00 98 913.7
20260505110241 62 61 3.5 4.3 0.00 0.00 0.00 97 913.7
20260505101743 62 60 3.5 4.3 0.01 0.01 0.00 97 913.5
20260505101741 62 57 3.5 4.3 0.01 0.01 0.00 97 913.5
20260505101241 62 58 0.9 3.5 0.00 0.00 0.00 97 913.5
20260505101142 62 66 0.0 2.6 0.00 0.00 0.00 98 913.5
20260505100741 62 91 0.9 2.6 0.00 0.00 0.00 97 913.5
20260505100542 62 60 1.7 2.6 0.00 0.00 0.00 97 913.5
20260505100241 62 48 0.0 2.6 0.00 0.00 0.00 97 913.4
20260505095942 62 63 2.6 3.5 0.00 0.00 0.00 97 913.4
20260505095741 62 66 2.6 3.5 0.00 0.00 0.00 97 913.4
20260505095342 62 69 0.9 4.3 0.00 0.00 0.00 97 913.4
20260505094743 62 56 4.3 5.2 0.00 0.00 0.00 97 913.3
20260505094741 62 54 4.3 5.2 0.00 0.00 0.00 97 913.3
20260505094142 62 43 3.5 4.3 0.00 0.00 0.00 97 913.3
20260505093741 62 60 0.0 4.3 0.00 0.00 0.00 97 913.2
20260505093542 63 52 4.3 6.1 0.00 0.00 0.00 97 913.3
20260505093241 63 77 0.9 5.2 0.00 0.00 0.00 97 913.3
20260505092942 63 62 0.9 3.5 0.00 0.00 0.00 97 913.3
20260505092342 63 71 0.0 2.6 0.00 0.00 0.00 98 913.3
20260505092241 63 71 1.7 2.6 0.00 0.00 0.00 97 913.3
20260505091745 63 56 0.0 0.0 0.00 0.00 0.00 97 913.2
20260505091240 63 69 0.0 2.6 0.00 0.00 0.00 97 913.2
20260505091142 63 57 0.9 3.5 0.00 0.00 0.00 97 913.3
20260505090740 63 38 0.0 1.7 0.00 0.00 0.00 97 913.3
20260505090542 64 64 1.7 2.6 0.00 0.00 0.00 97 913.3
20260505090240 64 48 2.6 2.6 0.00 0.00 0.00 97 913.2
20260505085943 63 46 0.0 0.0 0.00 0.00 0.00 97 913.2
20260505085740 64 49 2.6 3.5 0.00 0.00 0.00 97 913.2
20260505085342 63 49 1.7 2.6 0.00 0.00 0.00 97 913.2
20260505085240 63 45 0.9 2.6 0.00 0.00 0.00 97 913.3
20260505084742 64 45 1.7 2.6 0.00 0.00 0.00 97 913.3
20260505084740 64 51 1.7 2.6 0.00 0.00 0.00 97 913.3
20260505084241 64 63 1.7 3.5 0.00 0.00 0.00 97 913.3
20260505084141 64 105 1.7 3.5 0.00 0.00 0.00 97 913.4
20260505083740 64 90 1.7 3.5 0.00 0.00 0.00 97 913.4
20260505083542 65 138 0.0 1.7 0.00 0.00 0.00 98 913.4
20260505083240 64 175 0.0 0.9 0.00 0.00 0.00 97 913.4
20260505082943 65 114 0.0 0.9 0.00 0.00 0.00 97 913.4
20260505082740 65 148 0.0 1.7 0.00 0.00 0.00 97 913.4
20260505082341 65 167 0.0 0.0 0.00 0.00 0.00 97 913.3
20260505082240 65 97 0.0 0.9 0.00 0.00 0.00 97 913.3
20260505081742 65 66 0.9 1.7 0.00 0.00 0.00 98 913.3
20260505081740 65 66 0.9 1.7 0.00 0.00 0.00 98 913.3
20260505081240 64 55 1.7 2.6 0.00 0.00 0.00 97 913.3
20260505081141 64 61 0.9 2.6 0.00 0.00 0.00 97 913.4
20260505080740 65 73 0.9 1.7 0.00 0.00 0.00 97 913.4
20260505080541 66 80 0.0 0.9 0.00 0.00 0.00 98 913.4
20260505080240 66 89 0.0 0.0 0.00 0.00 0.00 98 913.4
20260505075941 66 113 0.0 0.0 0.00 0.00 0.00 98 913.4
20260505075740 65 226 0.0 0.0 0.00 0.00 0.00 98 913.4
20260505075341 66 204 0.9 2.6 0.00 0.00 0.00 98 913.4
20260505075240 66 187 0.0 2.6 0.00 0.00 0.00 98 913.4
20260505074742 65 228 0.0 0.0 0.00 0.00 0.00 98 913.4
20260505074740 65 227 0.0 0.0 0.00 0.00 0.00 98 913.4
20260505074240 65 165 0.0 0.9 0.00 0.00 0.00 98 913.5
20260505073740 65 115 0.0 0.9 0.00 0.00 0.00 97 913.5
20260505073541 65 129 0.0 1.7 0.00 0.00 0.00 98 913.5
20260505073240 65 200 0.0 2.6 0.00 0.00 0.00 97 913.6
20260505072740 65 209 0.0 0.0 0.00 0.00 0.00 97 913.8
20260505072240 65 91 0.0 1.7 0.00 0.00 0.00 97 913.8
20260505071741 65 116 0.0 1.7 0.00 0.00 0.00 97 913.8
20260505071240 65 262 0.0 1.7 0.00 0.00 0.00 97 913.9
20260505070541 66 258 0.9 4.3 0.00 0.00 0.00 97 913.8
20260505070239 66 209 0.9 3.5 0.00 0.00 0.00 98 913.8
20260505065941 65 205 0.0 0.9 0.00 0.00 0.00 97 913.8
20260505065740 66 200 2.6 4.3 0.00 0.00 0.00 97 913.8
20260505065341 66 170 0.9 3.5 0.00 0.00 0.00 97 913.9
20260505065239 66 232 1.7 3.5 0.00 0.00 0.00 97 913.9
20260505064741 65 197 2.6 4.3 0.00 0.00 0.00 97 913.9
20260505064739 65 202 2.6 4.3 0.00 0.00 0.00 97 913.9
20260505064240 65 208 0.0 0.0 0.00 0.00 0.00 98 914.0
20260505063739 65 252 0.0 2.6 0.00 0.00 0.00 97 914.1
20260505063541 65 234 0.0 2.6 0.00 0.00 0.00 97 914.1
20260505063239 66 252 0.0 4.3 0.00 0.00 0.00 97 914.2
20260505062941 67 292 0.0 4.3 0.00 0.00 0.00 98 914.2
20260505062739 67 198 0.9 4.3 0.00 0.00 0.00 98 914.2
20260505062340 66 157 0.0 3.5 0.00 0.00 0.00 98 914.3
20260505062240 66 198 0.0 3.5 0.00 0.00 0.00 98 914.3
20260505061741 65 162 0.0 1.7 0.00 0.00 0.00 98 914.3
20260505061240 65 263 0.0 0.9 0.00 0.00 0.00 97 914.3
20260505061140 65 238 0.0 0.9 0.00 0.00 0.00 97 914.4
20260505060739 65 270 0.0 2.6 0.00 0.00 0.00 97 914.4
20260505060540 66 293 0.0 4.3 0.00 0.00 0.00 98 914.3
20260505060239 65 307 0.9 4.3 0.00 0.00 0.00 98 914.3
20260505055940 65 232 1.7 4.3 0.00 0.00 0.00 98 914.3
20260505055739 65 261 1.7 3.5 0.00 0.00 0.00 98 914.4
20260505055340 65 262 2.6 4.3 0.00 0.00 0.00 98 914.4
20260505055239 65 255 1.7 4.3 0.00 0.00 0.00 98 914.4
20260505054741 65 252 1.7 5.2 0.00 0.00 0.00 98 914.4
20260505054739 65 249 1.7 5.2 0.00 0.00 0.00 98 914.4
20260505054239 65 275 1.7 4.3 0.00 0.00 0.00 98 914.5
20260505054140 65 258 1.7 4.3 0.00 0.00 0.00 98 914.5
20260505053739 65 268 1.7 3.5 0.00 0.00 0.00 98 914.6
20260505053540 65 194 1.7 3.5 0.00 0.00 0.00 98 914.7
20260505053239 64 252 1.7 4.3 0.00 0.00 0.00 98 914.7
20260505052940 65 267 2.6 4.3 0.00 0.00 0.00 98 914.7
20260505052739 64 256 1.7 3.5 0.00 0.00 0.00 98 914.7
20260505052340 65 256 0.9 3.5 0.00 0.00 0.00 98 914.8
20260505051740 64 256 2.6 5.2 0.00 0.00 0.00 98 914.9
20260505051239 65 235 2.6 5.2 0.00 0.00 0.00 98 914.9
20260505051140 65 245 1.7 5.2 0.00 0.00 0.00 98 915.0
20260505050540 65 242 2.6 5.2 0.00 0.00 0.00 98 915.1
20260505050239 65 259 1.7 3.5 0.00 0.00 0.00 98 915.0
20260505041740 64 270 3.5 7.0 0.00 0.00 0.00 97 915.4
20260505041738 64 269 3.5 7.0 0.00 0.00 0.00 97 915.4
20260505041238 64 255 2.6 7.0 0.00 0.00 0.00 98 915.5
20260505041139 63 245 3.5 7.0 0.00 0.00 0.00 98 915.6
20260505040738 64 229 2.6 5.2 0.00 0.00 0.00 98 915.7
20260505040539 64 245 3.5 5.2 0.00 0.00 0.00 97 915.7
20260505040238 64 280 2.6 4.3 0.00 0.00 0.00 97 915.7
20260505035939 64 238 1.7 4.3 0.00 0.00 0.00 98 915.7
20260505035738 64 221 1.7 4.3 0.00 0.00 0.00 98 915.7